Starlink 30203

operational
NORAD ID: 57498 Int'l Des: 2023-113 Owner: SPXS Country: US Constellation: starlink
LEOCIRCULAR

About Starlink 30203

Description loading...

Live Position

Loading 3D Globe...

Upcoming Passes

Altitude History

Altitude vs Time

uPlot chart will show altitude changes over time

Two-Line Element Set

1 57498U 23113D 25306.40584852 -.00005794 00000-0 -41464-3 0 9994
2 57498 43.0050 348.9445 0001118 276.7251 83.3464 15.02492842124535
Epoch: Nov 2, 2025 • Age: 20 hours

Current Status

Altitude 561.2 km
Velocity 7.59 km/s
Sub-Earth Point 33.87°N, 5.59°W
Launch Date Aug 7, 2023
Age 2.2 years
Type internet

Technical Details

Classification Payload
Mass 730.00 kg
Dry Mass 700.00 kg
Total Mass 730.00 kg
Length 0.30 m
Diameter 4.10 m
Span 29.00 m
Shape Box + pan
Manufacturer SPXS
Bus Type Starlink V2M
Phase Status In Orbit
Owner/State SPXS/US

Large Constellations

Loading constellations...